| time (UTC) | temp C | wind direction | speed KPH | gust KPH | rain 1hr cm | rain 24hr cm | rain mn cm | humidity % | barometer mb |
| 20260831193003 | 22 | 170 | 12.9 | 19.3 | 0.00 | 0.00 | 0.00 | 62 | 1023.4 |
| 20260831192503 | 22 | 149 | 4.8 | 11.3 | 0.00 | 0.00 | 0.00 | 62 | 1023.4 |
| 20260831192003 | 22 | 212 | 6.4 | 16.1 | 0.00 | 0.00 | 0.00 | 64 | 1023.1 |
| 20260831191504 | 22 | 202 | 12.9 | 12.9 | 0.00 | 0.00 | 0.00 | 62 | 1023.2 |
| 20260831191004 | 23 | 94 | 0.0 | 4.8 | 0.00 | 0.00 | 0.00 | 60 | 1023.4 |
| 20260831190504 | 22 | 357 | 3.2 | 6.4 | 0.00 | 0.00 | 0.00 | 62 | 1023.2 |
| 20260831190004 | 22 | 291 | 3.2 | 12.9 | 0.00 | 0.00 | 0.00 | 61 | 1023.4 |
| 20260831185504 | 23 | 119 | 8.0 | 11.3 | 0.00 | 0.00 | 0.00 | 59 | 1023.6 |
| 20260831185003 | 22 | 10 | 4.8 | 11.3 | 0.00 | 0.00 | 0.00 | 62 | 1023.6 |
| 20260831184503 | 22 | 106 | 6.4 | 6.4 | 0.00 | 0.00 | 0.00 | 62 | 1023.7 |
| 20260831184004 | 22 | 116 | 14.5 | 16.1 | 0.00 | 0.00 | 0.00 | 62 | 1023.4 |
| 20260831183504 | 22 | 192 | 6.4 | 17.7 | 0.00 | 0.00 | 0.00 | 63 | 1023.4 |
| 20260831183004 | 22 | 97 | 4.8 | 20.9 | 0.00 | 0.00 | 0.00 | 64 | 1023.6 |
| 20260831182504 | 22 | 152 | 4.8 | 8.0 | 0.00 | 0.00 | 0.00 | 63 | 1023.4 |
| 20260831182004 | 22 | 160 | 8.0 | 14.5 | 0.00 | 0.00 | 0.00 | 63 | 1023.5 |
| 20260831181504 | 21 | 144 | 6.4 | 17.7 | 0.00 | 0.00 | 0.00 | 66 | 1023.2 |
| 20260831181004 | 22 | 119 | 20.9 | 22.5 | 0.00 | 0.00 | 0.00 | 62 | 1023.2 |
| 20260831180503 | 22 | 220 | 6.4 | 14.5 | 0.00 | 0.00 | 0.00 | 64 | 1023.5 |
| 20260831180003 | 22 | 141 | 8.0 | 16.1 | 0.00 | 0.00 | 0.00 | 63 | 1023.2 |
| 20260831175504 | 22 | 138 | 4.8 | 14.5 | 0.00 | 0.00 | 0.00 | 65 | 1023.4 |
| 20260831173504 | 21 | 149 | 6.4 | 12.9 | 0.00 | 0.00 | 0.00 | 68 | 1023.2 |
| 20260831173004 | 20 | 111 | 8.0 | 25.7 | 0.00 | 0.00 | 0.00 | 71 | 1023.0 |
| 20260831172504 | 20 | 110 | 11.3 | 14.5 | 0.00 | 0.00 | 0.00 | 72 | 1023.2 |
| 20260831172004 | 20 | 137 | 12.9 | 19.3 | 0.00 | 0.00 | 0.00 | 72 | 1023.0 |
| 20260831171504 | 20 | 144 | 6.4 | 16.1 | 0.00 | 0.00 | 0.00 | 72 | 1023.4 |
| 20260831171004 | 19 | 175 | 8.0 | 22.5 | 0.00 | 0.00 | 0.00 | 72 | 1023.1 |
| 20260831170504 | 19 | 147 | 8.0 | 17.7 | 0.00 | 0.00 | 0.00 | 73 | 1022.9 |
| 20260831170003 | 19 | 115 | 4.8 | 20.9 | 0.00 | 0.00 | 0.00 | 73 | 1023.0 |
| 20260831165503 | 19 | 134 | 3.2 | 20.9 | 0.00 | 0.00 | 0.00 | 72 | 1023.2 |
| 20260831165003 | 19 | 175 | 11.3 | 20.9 | 0.00 | 0.00 | 0.00 | 71 | 1023.0 |
| 20260831164503 | 19 | 136 | 12.9 | 25.7 | 0.00 | 0.00 | 0.00 | 71 | 1023.0 |
| 20260831164004 | 20 | 163 | 8.0 | 20.9 | 0.00 | 0.00 | 0.00 | 69 | 1022.9 |
| 20260831163503 | 20 | 141 | 22.5 | 27.4 | 0.00 | 0.00 | 0.00 | 67 | 1022.9 |
| 20260831163003 | 20 | 135 | 14.5 | 19.3 | 0.00 | 0.00 | 0.00 | 67 | 1023.0 |
| 20260831162504 | 20 | 125 | 8.0 | 12.9 | 0.00 | 0.00 | 0.00 | 66 | 1022.8 |
| 20260831162004 | 20 | 112 | 8.0 | 14.5 | 0.00 | 0.00 | 0.00 | 63 | 1022.8 |
| 20260831161503 | 20 | 118 | 9.7 | 11.3 | 0.00 | 0.00 | 0.00 | 62 | 1022.6 |
| 20260831161004 | 20 | 95 | 6.4 | 11.3 | 0.00 | 0.00 | 0.00 | 62 | 1022.6 |
| 20260831153504 | 20 | 204 | 14.5 | 17.7 | 0.00 | 0.00 | 0.00 | 59 | 1022.4 |
| 20260831153004 | 19 | 131 | 3.2 | 8.0 | 0.00 | 0.00 | 0.00 | 63 | 1022.4 |
| 20260831152504 | 18 | 211 | 17.7 | 20.9 | 0.00 | 0.00 | 0.00 | 62 | 1022.4 |
| 20260831152004 | 18 | 211 | 17.7 | 20.9 | 0.00 | 0.00 | 0.00 | 62 | 1022.3 |
| 20260831151504 | 18 | 211 | 17.7 | 20.9 | 0.00 | 0.00 | 0.00 | 62 | 1022.3 |
| 20260831151004 | 18 | 211 | 17.7 | 20.9 | 0.00 | 0.00 | 0.00 | 62 | 1022.3 |
| 20260831144004 | 17 | 221 | 0.0 | 4.8 | 0.00 | 0.00 | 0.00 | 65 | 1022.2 |
| 20260831143504 | 17 | 221 | 0.0 | 4.8 | 0.00 | 0.00 | 0.00 | 65 | 1022.1 |
| 20260831143004 | 17 | 221 | 0.0 | 4.8 | 0.00 | 0.00 | 0.00 | 65 | 1022.4 |
| 20260831142503 | 17 | 221 | 0.0 | 4.8 | 0.00 | 0.00 | 0.00 | 65 | 1022.4 |
| 20260831142003 | 17 | 221 | 0.0 | 4.8 | 0.00 | 0.00 | 0.00 | 65 | 1022.4 |
| 20260831141504 | 17 | 221 | 0.0 | 4.8 | 0.00 | 0.00 | 0.00 | 65 | 1022.3 |
| 20260831135004 | 16 | 226 | 3.2 | 3.2 | 0.00 | 0.00 | 0.00 | 67 | 1022.1 |
| 20260831133004 | 16 | 226 | 3.2 | 3.2 | 0.00 | 0.00 | 0.00 | 67 | 1021.9 |
| 20260831132504 | 16 | 226 | 3.2 | 3.2 | 0.00 | 0.00 | 0.00 | 67 | 1021.8 |
| 20260831132004 | 16 | 226 | 3.2 | 3.2 | 0.00 | 0.00 | 0.00 | 67 | 1021.9 |
| 20260831131503 | 16 | 226 | 3.2 | 3.2 | 0.00 | 0.00 | 0.00 | 67 | 1021.6 |
| 20260831131004 | 16 | 226 | 3.2 | 3.2 | 0.00 | 0.00 | 0.00 | 67 | 1021.7 |
| 20260831130504 | 16 | 226 | 3.2 | 3.2 | 0.00 | 0.00 | 0.00 | 67 | 1021.9 |
| 20260831130004 | 16 | 226 | 3.2 | 3.2 | 0.00 | 0.00 | 0.00 | 67 | 1021.5 |
| 20260831125503 | 16 | 226 | 3.2 | 3.2 | 0.00 | 0.00 | 0.00 | 67 | 1021.5 |
| 20260831111003 | 15 | 281 | 4.8 | 6.4 | 0.00 | 0.00 | 0.00 | 76 | 1020.9 |
| 20260831110503 | 15 | 281 | 4.8 | 6.4 | 0.00 | 0.00 | 0.00 | 76 | 1020.9 |
| 20260831110004 | 15 | 281 | 4.8 | 6.4 | 0.00 | 0.00 | 0.00 | 76 | 1021.4 |
| 20260831104004 | 15 | 281 | 4.8 | 6.4 | 0.00 | 0.00 | 0.00 | 76 | 1021.4 |
| 20260831103504 | 15 | 281 | 4.8 | 6.4 | 0.00 | 0.00 | 0.00 | 76 | 1021.3 |
| 20260831103005 | 15 | 281 | 4.8 | 6.4 | 0.00 | 0.00 | 0.00 | 76 | 1021.4 |
| 20260831102503 | 15 | 281 | 4.8 | 6.4 | 0.00 | 0.00 | 0.00 | 76 | 1021.6 |
| 20260831102004 | 15 | 281 | 4.8 | 6.4 | 0.00 | 0.00 | 0.00 | 76 | 1021.5 |
| 20260831090004 | 18 | 198 | 14.5 | 16.1 | 0.00 | 0.00 | 0.00 | 64 | 1022.3 |
| 20260831085504 | 18 | 198 | 14.5 | 16.1 | 0.00 | 0.00 | 0.00 | 64 | 1022.4 |
| 20260831085004 | 18 | 198 | 14.5 | 16.1 | 0.00 | 0.00 | 0.00 | 64 | 1022.1 |
| 20260831084504 | 18 | 198 | 14.5 | 16.1 | 0.00 | 0.00 | 0.00 | 64 | 1022.3 |
| 20260831084004 | 18 | 198 | 14.5 | 16.1 | 0.00 | 0.00 | 0.00 | 64 | 1022.2 |
| 20260831083503 | 18 | 198 | 14.5 | 16.1 | 0.00 | 0.00 | 0.00 | 64 | 1022.0 |
| 20260831083003 | 18 | 198 | 14.5 | 16.1 | 0.00 | 0.00 | 0.00 | 64 | 1022.2 |
| 20260831082504 | 18 | 198 | 14.5 | 16.1 | 0.00 | 0.00 | 0.00 | 64 | 1022.3 |
| 20260831082003 | 18 | 198 | 14.5 | 16.1 | 0.00 | 0.00 | 0.00 | 64 | 1022.0 |
| 20260831081503 | 18 | 198 | 14.5 | 16.1 | 0.00 | 0.00 | 0.00 | 64 | 1022.1 |
| 20260831081004 | 18 | 198 | 14.5 | 16.1 | 0.00 | 0.00 | 0.00 | 64 | 1022.2 |
| 20260831075503 | 18 | 95 | 16.1 | 17.7 | 0.00 | 0.00 | 0.00 | 63 | 1022.3 |
| 20260831075003 | 19 | 117 | 14.5 | 19.3 | 0.00 | 0.00 | 0.00 | 62 | 1022.1 |
| 20260831074504 | 19 | 116 | 11.3 | 20.9 | 0.00 | 0.00 | 0.00 | 58 | 1022.1 |
| 20260831074004 | 19 | 200 | 14.5 | 27.4 | 0.00 | 0.00 | 0.00 | 61 | 1022.0 |
| 20260831073504 | 19 | 200 | 14.5 | 27.4 | 0.00 | 0.00 | 0.00 | 61 | 1022.0 |
| 20260831073004 | 19 | 200 | 14.5 | 27.4 | 0.00 | 0.00 | 0.00 | 61 | 1022.3 |
| 20260831071004 | 22 | 330 | 0.0 | 4.8 | 0.00 | 0.00 | 0.00 | 67 | 1022.2 |
| 20260831070504 | 22 | 330 | 0.0 | 4.8 | 0.00 | 0.00 | 0.00 | 67 | 1022.3 |
| 20260831070004 | 22 | 330 | 0.0 | 4.8 | 0.00 | 0.00 | 0.00 | 67 | 1022.3 |
| 20260831065503 | 22 | 330 | 0.0 | 4.8 | 0.00 | 0.00 | 0.00 | 67 | 1022.1 |
| 20260831065004 | 22 | 330 | 0.0 | 4.8 | 0.00 | 0.00 | 0.00 | 67 | 1022.1 |
| 20260831064504 | 22 | 330 | 0.0 | 4.8 | 0.00 | 0.00 | 0.00 | 67 | 1022.2 |
| 20260831064003 | 22 | 330 | 0.0 | 4.8 | 0.00 | 0.00 | 0.00 | 67 | 1021.9 |
| 20260831063503 | 22 | 330 | 0.0 | 4.8 | 0.00 | 0.00 | 0.00 | 67 | 1022.1 |
| 20260831063004 | 22 | 330 | 0.0 | 4.8 | 0.00 | 0.00 | 0.00 | 67 | 1021.6 |
| 20260831062503 | 22 | 330 | 0.0 | 4.8 | 0.00 | 0.00 | 0.00 | 67 | 1021.3 |
| 20260831062003 | 22 | 111 | 4.8 | 6.4 | 0.00 | 0.00 | 0.00 | 66 | 1021.1 |
| 20260831061504 | 22 | 130 | 3.2 | 4.8 | 0.00 | 0.00 | 0.00 | 64 | 1021.1 |
| 20260831061003 | 22 | 142 | 3.2 | 3.2 | 0.00 | 0.00 | 0.00 | 64 | 1021.1 |
| 20260831060504 | 22 | 182 | 4.8 | 6.4 | 0.00 | 0.00 | 0.00 | 64 | 1021.1 |
| 20260831060004 | 22 | 182 | 4.8 | 6.4 | 0.00 | 0.00 | 0.00 | 64 | 1021.3 |
| 20260831055503 | 22 | 215 | 4.8 | 6.4 | 0.00 | 0.00 | 0.00 | 67 | 1021.1 |
| 20260831055003 | 22 | 215 | 4.8 | 6.4 | 0.00 | 0.00 | 0.00 | 67 | 1021.1 |
| 20260831054504 | 22 | 215 | 4.8 | 6.4 | 0.00 | 0.00 | 0.00 | 67 | 1021.5 |
| 20260831054004 | 22 | 215 | 4.8 | 6.4 | 0.00 | 0.00 | 0.00 | 67 | 1021.4 |
| 20260831053504 | 22 | 215 | 4.8 | 6.4 | 0.00 | 0.00 | 0.00 | 67 | 1021.4 |
| 20260831053004 | 22 | 215 | 4.8 | 6.4 | 0.00 | 0.00 | 0.00 | 67 | 1021.6 |
| 20260831052503 | 22 | 215 | 4.8 | 6.4 | 0.00 | 0.00 | 0.00 | 67 | 1021.7 |
| 20260831052004 | 22 | 215 | 4.8 | 6.4 | 0.00 | 0.00 | 0.00 | 67 | 1021.5 |
| 20260831051503 | 22 | 215 | 4.8 | 6.4 | 0.00 | 0.00 | 0.00 | 67 | 1021.6 |
| 20260831051003 | 22 | 215 | 4.8 | 6.4 | 0.00 | 0.00 | 0.00 | 67 | 1021.6 |
| 20260831050504 | 22 | 215 | 4.8 | 6.4 | 0.00 | 0.00 | 0.00 | 67 | 1021.3 |
| 20260831050004 | 22 | 215 | 4.8 | 6.4 | 0.00 | 0.00 | 0.00 | 67 | 1021.1 |
| 20260831045504 | 22 | 232 | 4.8 | 9.7 | 0.00 | 0.00 | 0.00 | 67 | 1021.3 |
| 20260831045004 | 22 | 180 | 4.8 | 6.4 | 0.00 | 0.00 | 0.00 | 67 | 1021.4 |
| 20260831044504 | 22 | 139 | 3.2 | 8.0 | 0.00 | 0.00 | 0.00 | 67 | 1021.1 |
| 20260831042503 | 21 | 165 | 0.0 | 4.8 | 0.00 | 0.00 | 0.00 | 69 | 1021.5 |
| 20260831042003 | 21 | 158 | 3.2 | 6.4 | 0.00 | 0.00 | 0.00 | 69 | 1021.4 |
| 20260831041503 | 21 | 212 | 3.2 | 4.8 | 0.00 | 0.00 | 0.00 | 70 | 1021.3 |
| 20260831041003 | 21 | 212 | 3.2 | 4.8 | 0.00 | 0.00 | 0.00 | 70 | 1021.4 |
| 20260831040503 | 21 | 190 | 4.8 | 4.8 | 0.00 | 0.00 | 0.00 | 69 | 1021.5 |
| 20260831040004 | 21 | 137 | 4.8 | 4.8 | 0.00 | 0.00 | 0.00 | 70 | 1021.4 |
| 20260831035504 | 21 | 202 | 3.2 | 4.8 | 0.00 | 0.00 | 0.00 | 70 | 1021.4 |
| 20260831035004 | 21 | 112 | 0.0 | 3.2 | 0.00 | 0.00 | 0.00 | 70 | 1021.5 |
| 20260831034504 | 21 | 186 | 0.0 | 3.2 | 0.00 | 0.00 | 0.00 | 70 | 1021.4 |
| 20260831034003 | 21 | 271 | 4.8 | 4.8 | 0.00 | 0.00 | 0.00 | 69 | 1021.5 |
| 20260831033504 | 21 | 271 | 4.8 | 4.8 | 0.00 | 0.00 | 0.00 | 69 | 1021.4 |
| 20260831031504 | 22 | 226 | 8.0 | 8.0 | 0.00 | 0.00 | 0.00 | 67 | 1020.9 |
| 20260831031004 | 22 | 226 | 8.0 | 8.0 | 0.00 | 0.00 | 0.00 | 67 | 1020.8 |
| 20260831030504 | 22 | 226 | 8.0 | 8.0 | 0.00 | 0.00 | 0.00 | 67 | 1020.7 |
| 20260831030003 | 22 | 224 | 8.0 | 11.3 | 0.00 | 0.00 | 0.00 | 66 | 1020.5 |
| 20260831025503 | 22 | 224 | 8.0 | 11.3 | 0.00 | 0.00 | 0.00 | 66 | 1020.5 |
| 20260831025004 | 23 | 237 | 4.8 | 6.4 | 0.00 | 0.00 | 0.00 | 64 | 1020.7 |
| 20260831023004 | 23 | 237 | 4.8 | 6.4 | 0.00 | 0.00 | 0.00 | 64 | 1020.7 |
| 20260831022504 | 23 | 237 | 4.8 | 6.4 | 0.00 | 0.00 | 0.00 | 64 | 1020.6 |
| 20260831022004 | 23 | 237 | 4.8 | 6.4 | 0.00 | 0.00 | 0.00 | 64 | 1020.7 |
| 20260831020004 | 23 | 257 | 9.7 | 11.3 | 0.00 | 0.00 | 0.00 | 63 | 1020.5 |
| 20260831015504 | 23 | 245 | 11.3 | 11.3 | 0.00 | 0.00 | 0.00 | 62 | 1020.3 |
| 20260831015004 | 23 | 265 | 14.5 | 16.1 | 0.00 | 0.00 | 0.00 | 62 | 1020.5 |
| 20260831014504 | 23 | 228 | 8.0 | 11.3 | 0.00 | 0.00 | 0.00 | 61 | 1020.3 |
| 20260831014004 | 23 | 256 | 11.3 | 11.3 | 0.00 | 0.00 | 0.00 | 60 | 1020.4 |
| 20260831013504 | 23 | 256 | 11.3 | 11.3 | 0.00 | 0.00 | 0.00 | 60 | 1020.3 |
| 20260831011503 | 24 | 199 | 8.0 | 14.5 | 0.00 | 0.00 | 0.00 | 58 | 1020.7 |
| 20260831011003 | 24 | 255 | 8.0 | 17.7 | 0.00 | 0.00 | 0.00 | 58 | 1020.4 |
| 20260831010504 | 24 | 209 | 6.4 | 12.9 | 0.00 | 0.00 | 0.00 | 58 | 1020.5 |
| 20260831010003 | 24 | 216 | 11.3 | 12.9 | 0.00 | 0.00 | 0.00 | 58 | 1020.6 |
| 20260831005503 | 24 | 233 | 11.3 | 17.7 | 0.00 | 0.00 | 0.00 | 58 | 1020.4 |
| 20260831005004 | 24 | 214 | 14.5 | 19.3 | 0.00 | 0.00 | 0.00 | 57 | 1020.6 |
| 20260831004504 | 24 | 258 | 4.8 | 8.0 | 0.00 | 0.00 | 0.00 | 57 | 1020.5 |
| 20260831004004 | 24 | 200 | 8.0 | 9.7 | 0.00 | 0.00 | 0.00 | 57 | 1020.5 |
| 20260831002004 | 25 | 192 | 12.9 | 17.7 | 0.00 | 0.00 | 0.00 | 55 | 1020.5 |
| 20260831001504 | 25 | 210 | 17.7 | 19.3 | 0.00 | 0.00 | 0.00 | 55 | 1020.2 |
| 20260831001003 | 25 | 206 | 8.0 | 11.3 | 0.00 | 0.00 | 0.00 | 55 | 1020.3 |
| 20260831000504 | 25 | 219 | 9.7 | 16.1 | 0.00 | 0.00 | 0.00 | 55 | 1020.3 |
| 20260831000004 | 25 | 197 | 8.0 | 11.3 | 0.00 | 0.00 | 0.00 | 54 | 1020.2 |
| 20260830235504 | 25 | 219 | 14.5 | 14.5 | 0.00 | 0.00 | 0.00 | 54 | 1020.2 |
| 20260830235004 | 25 | 251 | 8.0 | 17.7 | 0.00 | 0.00 | 0.00 | 53 | 1020.4 |
| 20260830234504 | 25 | 193 | 8.0 | 11.3 | 0.00 | 0.00 | 0.00 | 53 | 1020.5 |
| 20260830234004 | 25 | 204 | 9.7 | 20.9 | 0.00 | 0.00 | 0.00 | 52 | 1020.6 |
| 20260830233504 | 25 | 205 | 6.4 | 12.9 | 0.00 | 0.00 | 0.00 | 52 | 1020.8 |
| 20260830233003 | 25 | 202 | 14.5 | 20.9 | 0.00 | 0.00 | 0.00 | 51 | 1020.7 |
| 20260830232503 | 25 | 219 | 9.7 | 16.1 | 0.00 | 0.00 | 0.00 | 52 | 1020.5 |
| 20260830232004 | 25 | 215 | 12.9 | 14.5 | 0.00 | 0.00 | 0.00 | 52 | 1020.4 |
| 20260830231504 | 25 | 223 | 14.5 | 20.9 | 0.00 | 0.00 | 0.00 | 51 | 1020.6 |
| 20260830231003 | 25 | 217 | 11.3 | 16.1 | 0.00 | 0.00 | 0.00 | 51 | 1020.6 |
| 20260830230504 | 26 | 245 | 12.9 | 20.9 | 0.00 | 0.00 | 0.00 | 51 | 1020.6 |
| 20260830230004 | 26 | 197 | 14.5 | 19.3 | 0.00 | 0.00 | 0.00 | 50 | 1020.5 |
| 20260830225503 | 26 | 146 | 11.3 | 20.9 | 0.00 | 0.00 | 0.00 | 50 | 1020.8 |
| 20260830225004 | 26 | 185 | 16.1 | 19.3 | 0.00 | 0.00 | 0.00 | 49 | 1020.6 |
| 20260830224503 | 26 | 258 | 6.4 | 19.3 | 0.00 | 0.00 | 0.00 | 50 | 1020.7 |
| 20260830224003 | 26 | 168 | 11.3 | 16.1 | 0.00 | 0.00 | 0.00 | 50 | 1020.8 |
| 20260830223504 | 26 | 212 | 17.7 | 22.5 | 0.00 | 0.00 | 0.00 | 49 | 1020.8 |
| 20260830223003 | 26 | 223 | 14.5 | 29.0 | 0.00 | 0.00 | 0.00 | 48 | 1021.0 |
| 20260830222504 | 26 | 219 | 14.5 | 24.1 | 0.00 | 0.00 | 0.00 | 49 | 1021.1 |
| 20260830222004 | 26 | 207 | 8.0 | 20.9 | 0.00 | 0.00 | 0.00 | 50 | 1021.1 |
| 20260830221504 | 26 | 224 | 9.7 | 24.1 | 0.00 | 0.00 | 0.00 | 50 | 1021.4 |
| 20260830221004 | 25 | 202 | 9.7 | 19.3 | 0.00 | 0.00 | 0.00 | 51 | 1021.0 |
| 20260830220504 | 25 | 192 | 22.5 | 24.1 | 0.00 | 0.00 | 0.00 | 51 | 1021.4 |
| 20260830220003 | 26 | 153 | 12.9 | 17.7 | 0.00 | 0.00 | 0.00 | 49 | 1021.4 |
| 20260830215503 | 26 | 202 | 9.7 | 24.1 | 0.00 | 0.00 | 0.00 | 51 | 1021.6 |
| 20260830215004 | 27 | 234 | 11.3 | 20.9 | 0.00 | 0.00 | 0.00 | 48 | 1021.7 |
| 20260830214503 | 26 | 194 | 4.8 | 19.3 | 0.00 | 0.00 | 0.00 | 50 | 1021.7 |
| 20260830214003 | 25 | 211 | 12.9 | 30.6 | 0.00 | 0.00 | 0.00 | 52 | 1021.9 |
| 20260830212003 | 27 | 205 | 9.7 | 20.9 | 0.00 | 0.00 | 0.00 | 50 | 1021.9 |
| 20260830211503 | 28 | 195 | 17.7 | 20.9 | 0.00 | 0.00 | 0.00 | 48 | 1022.1 |
| 20260830211004 | 28 | 250 | 16.1 | 22.5 | 0.00 | 0.00 | 0.00 | 47 | 1022.2 |
| 20260830210503 | 27 | 217 | 12.9 | 24.1 | 0.00 | 0.00 | 0.00 | 48 | 1022.2 |
| 20260830210003 | 27 | 204 | 24.1 | 29.0 | 0.00 | 0.00 | 0.00 | 48 | 1022.2 |
| 20260830205504 | 27 | 137 | 11.3 | 22.5 | 0.00 | 0.00 | 0.00 | 49 | 1022.0 |
| 20260830205004 | 27 | 155 | 12.9 | 17.7 | 0.00 | 0.00 | 0.00 | 50 | 1022.2 |
| 20260830204504 | 26 | 239 | 14.5 | 24.1 | 0.00 | 0.00 | 0.00 | 51 | 1022.2 |
| 20260830204004 | 27 | 158 | 14.5 | 25.7 | 0.00 | 0.00 | 0.00 | 49 | 1022.3 |
| 20260830203503 | 27 | 158 | 11.3 | 19.3 | 0.00 | 0.00 | 0.00 | 50 | 1022.3 |
| 20260830203003 | 26 | 177 | 9.7 | 16.1 | 0.00 | 0.00 | 0.00 | 51 | 1022.4 |
| 20260830202504 | 25 | 225 | 14.5 | 30.6 | 0.00 | 0.00 | 0.00 | 52 | 1022.6 |
| 20260830202004 | 26 | 200 | 4.8 | 16.1 | 0.00 | 0.00 | 0.00 | 53 | 1022.3 |
| 20260830201504 | 26 | 247 | 16.1 | 38.6 | 0.00 | 0.00 | 0.00 | 52 | 1022.7 |
| 20260830201004 | 25 | 178 | 8.0 | 17.7 | 0.00 | 0.00 | 0.00 | 53 | 1022.6 |
| 20260830200503 | 25 | 126 | 9.7 | 20.9 | 0.00 | 0.00 | 0.00 | 53 | 1022.5 |
| 20260830200003 | 25 | 109 | 14.5 | 22.5 | 0.00 | 0.00 | 0.00 | 53 | 1022.6 |
| 20260830195504 | 25 | 209 | 11.3 | 12.9 | 0.00 | 0.00 | 0.00 | 53 | 1022.8 |
| 20260830195003 | 25 | 127 | 8.0 | 11.3 | 0.00 | 0.00 | 0.00 | 53 | 1022.8 |
| 20260830194503 | 25 | 150 | 8.0 | 19.3 | 0.00 | 0.00 | 0.00 | 54 | 1022.8 |
| 20260830194004 | 25 | 142 | 4.8 | 8.0 | 0.00 | 0.00 | 0.00 | 53 | 1022.9 |
| 20260830193504 | 25 | 142 | 4.8 | 11.3 | 0.00 | 0.00 | 0.00 | 53 | 1022.8 |